Date String (YYYY-MM-DD hh:mm:ss) UTC,Instrument flags,Ambient pressure (hPa),Sample flow (lpm),Bypass flow (lpm),Sample temperature (°C),Ambient temperature (°C),ASC tube jacket temperature (°C),LED temperature (°C),Box temperature (°C),Sample RH (%),Span deviation,Mass concentration (μg/m³),Mass concentration (μg/m³),Mass concentration (μg/m³)
DateTimeUTC,F1_M11,P_M11,Q1_M11,Q2_M11,T1_M11,T2_M11,T3_M11,T4_M11,T5_M11,U1_M11,ZSPAN_M11,X0_M11,X2_M11,X1_M11
2022-10-31 03:00:00,,0825.4,4.99,0.00,28.7,27.0,00.0,37.7,30.5,08.5,0000.0,0007.11,0004.19,0003.81
2022-10-31 03:01:00,,0825.4,5.02,0.00,28.7,27.0,00.0,37.7,30.5,09.0,0000.0,0007.07,0004.19,0003.82
2022-10-31 03:02:00,,0825.3,4.99,0.00,28.7,27.0,00.0,37.7,30.5,09.1,0000.0,0006.88,0004.14,0003.81
2022-10-31 03:03:00,,0825.4,5.00,0.00,28.7,26.9,00.0,37.7,30.4,09.2,0000.0,0006.75,0004.06,0003.76
2022-10-31 03:04:00,,0825.4,5.01,0.00,28.7,26.9,00.0,37.7,30.5,09.1,0000.0,0006.74,0004.00,0003.71
2022-10-31 03:05:00,,0825.3,4.99,0.00,28.7,26.9,00.0,37.7,30.4,08.4,0000.0,0006.34,0003.96,0003.70
2022-10-31 03:06:00,,0825.3,4.99,0.00,28.7,26.9,00.0,37.6,30.4,08.4,0000.0,0006.23,0003.97,0003.71
2022-10-31 03:07:00,,0825.4,5.01,0.00,28.7,26.9,00.0,37.6,30.4,09.0,0000.0,0006.14,0003.96,0003.70
2022-10-31 03:08:00,,0825.4,5.00,0.00,28.7,26.9,00.0,37.6,30.3,09.3,0000.0,0005.76,0003.82,0003.59
2022-10-31 03:09:00,,0825.4,4.99,0.00,28.7,26.9,00.0,37.6,30.3,09.2,0000.0,0005.56,0003.72,0003.48
2022-10-31 03:10:00,,0825.4,4.99,0.00,28.6,26.9,00.0,37.6,30.3,09.4,0000.0,0005.24,0003.58,0003.37
2022-10-31 03:11:00,,0825.4,5.02,0.00,28.6,26.9,00.0,37.6,30.4,09.2,0000.0,0005.09,0003.52,0003.32
2022-10-31 03:12:00,,0825.3,4.99,0.00,28.6,26.9,00.0,37.6,30.3,09.2,0000.0,0005.04,0003.48,0003.29
2022-10-31 03:13:00,,0825.4,5.00,0.00,28.6,26.9,00.0,37.6,30.3,09.4,0000.0,0004.99,0003.46,0003.26
2022-10-31 03:14:00,,0825.4,4.99,0.00,28.6,26.9,00.0,37.6,30.3,09.2,0000.0,0005.02,0003.49,0003.26
2022-10-31 03:15:00,,0825.4,5.00,0.00,28.6,26.9,00.0,37.6,30.3,09.2,0000.0,0005.06,0003.53,0003.26
2022-10-31 03:16:00,,0825.4,5.01,0.00,28.6,26.9,00.0,37.5,30.3,09.1,0000.0,0005.02,0003.51,0003.23
2022-10-31 03:17:00,,0825.4,5.00,0.00,28.6,26.9,00.0,37.5,30.3,09.2,0000.0,0004.81,0003.43,0003.18
2022-10-31 03:18:00,,0825.4,5.00,0.00,28.6,26.9,00.0,37.5,30.4,09.4,0000.0,0004.68,0003.38,0003.12
2022-10-31 03:19:00,,0825.4,4.99,0.00,28.6,26.9,00.0,37.5,30.3,09.3,0000.0,0004.57,0003.36,0003.12
2022-10-31 03:20:00,,0825.4,5.00,0.00,28.6,26.8,00.0,37.5,30.2,09.2,0000.0,0004.60,0003.35,0003.11
2022-10-31 03:21:00,,0825.4,5.00,0.00,28.6,26.8,00.0,37.5,30.2,09.5,0000.0,0004.56,0003.34,0003.09
2022-10-31 03:22:00,,0825.4,5.00,0.00,28.6,26.8,00.0,37.5,30.2,09.6,0000.0,0004.47,0003.31,0003.06
2022-10-31 03:23:00,,0825.4,5.00,0.00,28.5,26.8,00.0,37.5,30.2,09.6,0000.0,0004.49,0003.29,0003.02
2022-10-31 03:24:00,,0825.4,4.99,0.00,28.5,26.8,00.0,37.5,30.2,09.6,0000.0,0004.52,0003.29,0003.01
2022-10-31 03:25:00,,0825.4,5.00,0.00,28.5,26.8,00.0,37.5,30.2,09.6,0000.0,0004.33,0003.25,0002.97
2022-10-31 03:26:00,,0825.3,4.99,0.00,28.5,26.8,00.0,37.5,30.2,09.6,0000.0,0004.08,0003.20,0002.93
2022-10-31 03:27:00,,0825.4,5.01,0.00,28.5,26.8,00.0,37.5,30.2,09.6,0000.0,0003.91,0003.13,0002.87
2022-10-31 03:28:00,,0825.3,5.00,0.00,28.5,26.8,00.0,37.5,30.3,09.6,0000.0,0004.03,0003.15,0002.84
2022-10-31 03:29:00,,0825.3,5.00,0.00,28.5,26.8,00.0,37.5,30.2,09.6,0000.0,0004.16,0003.18,0002.86
2022-10-31 03:30:00,,0825.4,5.00,0.00,28.5,26.8,00.0,37.5,30.1,09.5,0000.0,0004.23,0003.20,0002.87
2022-10-31 03:31:00,,0825.4,4.99,0.00,28.5,26.7,00.0,37.5,30.0,09.3,0000.0,0004.55,0003.20,0002.88
2022-10-31 03:32:00,,0825.4,5.01,0.00,28.5,26.7,00.0,37.4,30.1,09.3,0000.0,0004.72,0003.24,0002.93
2022-10-31 03:33:00,,0825.4,4.99,0.00,28.4,26.7,00.0,37.4,30.1,09.3,0000.0,0004.84,0003.28,0002.98
2022-10-31 03:34:00,,0825.4,5.00,0.00,28.4,26.7,00.0,37.4,30.1,09.3,0000.0,0004.75,0003.29,0003.02
2022-10-31 03:35:00,,0825.4,4.99,0.00,28.4,26.7,00.0,37.4,30.0,09.3,0000.0,0005.10,0003.30,0003.04
2022-10-31 03:36:00,,0825.4,5.02,0.00,28.4,26.7,00.0,37.4,30.1,09.3,0000.0,0005.97,0003.31,0003.07
2022-10-31 03:37:00,,0825.4,5.00,0.00,28.4,26.7,00.0,37.4,30.1,09.3,0000.0,0006.01,0003.33,0003.09
2022-10-31 03:38:00,,0825.4,4.99,0.00,28.4,26.7,00.0,37.4,30.1,09.3,0000.0,0006.13,0003.36,0003.11
2022-10-31 03:39:00,,0825.3,5.00,0.00,28.4,26.7,00.0,37.4,30.1,09.3,0000.0,0006.05,0003.34,0003.12
2022-10-31 03:40:00,,0825.4,4.99,0.00,28.4,26.7,00.0,37.4,30.1,09.3,0000.0,0005.95,0003.32,0003.12
2022-10-31 03:41:00,,0825.3,5.00,0.00,28.4,26.7,00.0,37.3,30.1,09.3,0000.0,0005.88,0003.30,0003.12
2022-10-31 03:42:00,,0825.4,5.00,0.00,28.4,26.6,00.0,37.3,30.1,09.4,0000.0,0005.47,0003.26,0003.08
2022-10-31 03:43:00,,0825.4,4.99,0.00,28.4,26.7,00.0,37.3,30.1,09.4,0000.0,0005.41,0003.25,0003.03
2022-10-31 03:44:00,,0825.4,4.99,0.00,28.4,26.7,00.0,37.3,30.1,09.4,0000.0,0005.25,0003.20,0002.97
2022-10-31 03:45:00,,0825.4,5.00,0.00,28.4,26.7,00.0,37.3,30.1,09.4,0000.0,0005.19,0003.18,0002.94
2022-10-31 03:46:00,,0825.3,5.00,0.00,28.4,26.7,00.0,37.3,30.1,09.4,0000.0,0004.95,0003.16,0002.92
2022-10-31 03:47:00,,0825.4,5.01,0.00,28.4,26.7,00.0,37.3,30.2,09.4,0000.0,0003.97,0003.15,0002.89
2022-10-31 03:48:00,,0825.4,5.00,0.00,28.4,26.7,00.0,37.3,30.1,09.4,0000.0,0003.91,0003.13,0002.86
2022-10-31 03:49:00,,0825.4,5.00,0.00,28.4,26.7,00.0,37.3,30.1,09.4,0000.0,0003.84,0003.12,0002.84
2022-10-31 03:50:00,,0825.3,5.01,0.00,28.4,26.7,00.0,37.3,30.1,09.4,0000.0,0003.85,0003.11,0002.83
2022-10-31 03:51:00,,0825.4,5.00,0.00,28.4,26.7,00.0,37.3,30.1,09.4,0000.0,0003.79,0003.07,0002.79
2022-10-31 03:52:00,,0825.4,5.01,0.00,28.4,26.7,00.0,37.3,30.1,09.4,0000.0,0003.89,0003.06,0002.76
2022-10-31 03:53:00,,0825.3,5.00,0.00,28.4,26.7,00.0,37.3,30.2,09.4,0000.0,0003.92,0003.05,0002.75
2022-10-31 03:54:00,,0825.4,5.01,0.00,28.4,26.8,00.0,37.3,30.2,09.4,0000.0,0003.97,0003.02,0002.75
2022-10-31 03:55:00,,0825.4,5.00,0.00,28.4,26.8,00.0,37.3,30.2,09.3,0000.0,0003.99,0003.04,0002.76
2022-10-31 03:56:00,,0825.3,4.99,0.00,28.4,26.8,00.0,37.3,30.3,09.4,0000.0,0004.04,0003.05,0002.74
2022-10-31 03:57:00,,0825.4,5.00,0.00,28.4,26.8,00.0,37.3,30.3,09.4,0000.0,0004.03,0003.03,0002.71
2022-10-31 03:58:00,,0825.3,5.00,0.00,28.4,26.9,00.0,37.3,30.3,09.4,0000.0,0003.92,0002.99,0002.68
2022-10-31 03:59:00,,0825.4,5.00,0.00,28.4,26.9,00.0,37.3,30.3,09.4,0000.0,0003.88,0002.96,0002.67
